Weather History for Cedar City, UT

Change the Weather History Date:

Sunday, March 11, 2012

  Actual Average Record
Temperature  
Mean Temperature 45 °F 39 °F  
Max Temperature 60 °F 53 °F 72 °F (1972)
Min Temperature 30 °F 25 °F 6 °F (2006)
Degree Days  
Heating Degree Days 20 26  
Month to date heating degree days 330 296  
Since 1 July heating degree days 4827 4858  
Cooling Degree Days 0 0  
Month to date cooling degree days 0 0  
Year to date cooling degree days 0 0  
Moisture  
Dew Point 16 °F    
Average Humidity 36    
Maximum Humidity 53    
Minimum Humidity 19    
Precipitation  
Precipitation 0.00 in 0.04 in 0.82 in (1995)
Month to date precipitation 0.23 0.47  
Year to date precipitation 2.08 2.33  
Sea Level Pressure  
Sea Level Pressure 29.84 in    
Wind  
Wind Speed 10 mph (SSW)    
Max Wind Speed 26 mph    
Max Gust Speed 36 mph    
Visibility 10 miles    
Events      
T = Trace of Precipitation, MM = Missing Value Source: NWS Daily Summary

Daily Weather History Graph

Daily Weather History Graph

Search for Another Location

Airport:

Trip Planner

Search our weather history database for the weather conditions in past years. The results will help you decide how hot, cold, wet, or windy it might be!

Date:

Astronomy

Mar. 11, 2012 Rise Set
Actual Time 7:48 AM MDT 7:36 PM MDT
Civil Twilight 7:22 AM MDT 8:02 PM MDT
Nautical Twilight 6:52 AM MDT 8:32 PM MDT
Astronomical Twilight 6:21 AM MDT 9:03 PM MDT
Moon 11:58 PM MDT (3/11) 9:32 AM MDT (3/11)
Length of Visible Light 12h 40m
Length of Day
11h 47m
Waning Gibbous, 85% of the Moon is Illuminated
Mar 11
Waning Gibbous
Mar 14
Last Quarter
Mar 22
New
Mar 30
First Quarter
Apr 6
Full

Hourly Weather History & Observations

Time (MDT) Temp. Windchill Dew Point Humidity Pressure Visibility Wind Dir Wind Speed Gust Speed Precip Events Conditions
12:53 AM 30.0 °F 26.5 °F 17.1 °F 59% 29.88 in 10.0 mi ENE 3.5 mph - N/A   Clear
1:53 AM 33.1 °F 28.7 °F 18.0 °F 54% 29.87 in 10.0 mi SE 4.6 mph - N/A   Clear
3:53 AM 34.0 °F 29.8 °F 16.0 °F 48% 29.85 in 10.0 mi South 4.6 mph - N/A   Clear
4:53 AM 33.1 °F 27.7 °F 16.0 °F 50% 29.84 in 10.0 mi South 5.8 mph - N/A   Clear
6:53 AM 34.0 °F 29.8 °F 17.1 °F 50% 29.85 in 10.0 mi Variable 4.6 mph - N/A   Clear
7:53 AM 39.9 °F 33.9 °F 15.1 °F 36% 29.86 in 10.0 mi SSW 9.2 mph 20.7 mph N/A   Clear
8:53 AM 42.1 °F 34.9 °F 15.1 °F 34% 29.88 in 10.0 mi South 13.8 mph 17.3 mph N/A   Clear
9:53 AM 46.0 °F 41.9 °F 18.0 °F 33% 29.90 in 10.0 mi SSW 8.1 mph - N/A   Clear
10:53 AM 51.1 °F - 18.0 °F 27% 29.88 in 10.0 mi SW 15.0 mph 24.2 mph N/A   Clear
11:53 AM 54.0 °F - 18.0 °F 24% 29.86 in 10.0 mi SW 18.4 mph 26.5 mph N/A   Clear
12:53 PM 55.9 °F - 17.1 °F 22% 29.84 in 10.0 mi SW 20.7 mph 31.1 mph N/A   Clear
1:53 PM 57.0 °F - 17.1 °F 21% 29.83 in 10.0 mi SSW 23.0 mph 34.5 mph N/A   Clear
2:53 PM 57.0 °F - 16.0 °F 20% 29.81 in 10.0 mi SSW 19.6 mph 32.2 mph N/A   Clear
3:53 PM 57.9 °F - 14.0 °F 18% 29.78 in 10.0 mi SSW 19.6 mph 31.1 mph N/A   Clear
4:53 PM 57.0 °F - 15.1 °F 19% 29.78 in 10.0 mi SSW 17.3 mph 28.8 mph N/A   Clear
5:53 PM 55.9 °F - 15.1 °F 20% 29.78 in 10.0 mi SSW 20.7 mph 27.6 mph N/A   Clear
6:53 PM 53.1 °F - 15.1 °F 22% 29.80 in 10.0 mi SSW 17.3 mph 27.6 mph N/A   Clear
7:53 PM 48.9 °F - 15.1 °F 26% 29.81 in 10.0 mi South 9.2 mph - N/A   Clear
8:53 PM 46.9 °F - 16.0 °F 29% 29.82 in 10.0 mi SSW 10.4 mph - N/A   Clear
9:53 PM 45.0 °F 40.6 °F 15.1 °F 30% 29.82 in 10.0 mi SSW 8.1 mph - N/A   Clear
10:53 PM 39.9 °F 33.9 °F 16.0 °F 38% 29.83 in 10.0 mi SSW 9.2 mph - N/A   Clear
11:53 PM 39.0 °F 32.8 °F 16.0 °F 39% 29.84 in 10.0 mi South 9.2 mph - N/A   Clear
12:53 AM 45.0 °F 40.1 °F 12.9 °F 27% 29.81 in 10.0 mi South 9.2 mph - N/A   Clear